Weather Roundup
Issued by NWS Springfield, MO

Home | Current Version | Previous Version | Text Only | Print | Product List | Glossary On
Versions: 1 2 3 4 5 6 7 8 9 10 11 12 13 14 15 16 17 18 19 20 21 22 23 24 25 26 27 28 29 30 31 32 33 34 35 36 37 38 39 40 41 42 43 44 45 46 47 48 49 50
000
NZUS99 KSGF 230659
HRRSGF

HOURLY WEATHER
NATIONAL WEATHER SERVICE SPRINGFIELD MO
200 AM CDT WED APR 23 2014

......SGF CWA......

CITY           SKY/WX    TMP DP  RH WIND       PRES   REMARKS
SPRINGFIELD    PTCLDY    49  36  61 E6        30.00S
JOPLIN         PTCLDY    51  38  60 E5        29.98F
WEST PLAINS    CLEAR     45  33  63 CALM      30.03R
ROLLA          CLEAR     47  32  56 NE7       30.02S
OSAGE BEACH    CLEAR     48  34  57 CALM      30.04S

......SURROUNDING SGF CWA......

CITY           SKY/WX    TMP DP  RH WIND       PRES   REMARKS
CHANUTE        CLOUDY    53  40  61 E6        29.98F
PARSONS        CLOUDY    55  37  50 CALM      29.98F
COFFEYVILLE    MOCLDY    49  39  68 E3        29.97F
EMPORIA        PTCLDY    54  36  50 SE10      29.95F HAZE
SILOAM SPRINGS PTCLDY    52  37  58 E6        30.00S
HARRISON AR    CLEAR     50  38  63 CALM      30.01F
NEAR YELLVILLE CLEAR     48  36  61 N3        30.01S

......KANSAS AND MISSOURI......

CITY           SKY/WX    TMP DP  RH WIND       PRES   REMARKS
KANSAS CTY INT PTCLDY    56  34  43 E10       30.00S
DOWNTOWN KC    PTCLDY    55  34  45 E5        29.99S
COLUMBIA       CLEAR     49  35  58 NE7       30.03F
SEDALIA        CLEAR     50  37  61 E5        30.02F
ST JOSEPH      MOCLDY    56  35  45 SE10      30.00S
ST LOUIS       PTCLDY    50  34  54 CALM      30.04S
SPIRIT OF STL  CLEAR     42  38  85 CALM      30.04R
KIRKSVILLE     MOCLDY    48  33  56 NE6       30.05F
WICHITA        PTCLDY    59  34  39 SE14      29.90F
TOPEKA         MOCLDY    54  37  52 SE7       29.96F
OLATHE         CLOUDY    54  35  48 SE5       29.99S

......TENNESSEE......

CITY           SKY/WX    TMP DP  RH WIND       PRES   REMARKS
MEMPHIS        CLEAR     59  41  51 NE6       29.97R
NASHVILLE      CLEAR     55  39  54 N5        29.96S

......ARKANSAS.......

CITY           SKY/WX    TMP DP  RH WIND       PRES   REMARKS
FAYETTEVILLE   PTCLDY    43  41  93 CALM      30.00S
FT SMITH       CLEAR     50  45  83 CALM      29.97S
LITTLE ROCK    CLEAR     56  50  80 CALM      29.97F

......OKLAHOMA.......

CITY           SKY/WX    TMP DP  RH WIND       PRES   REMARKS
TULSA          PTCLDY    54  46  74 CALM      29.95F
PONCA CITY     CLEAR     57  36  45 SE10      29.92F
MCALESTER      PTCLDY    51  44  77 CALM      29.96S
OKLAHOMA CITY  PTCLDY    56  43  61 SE10      29.93F

......IOWA............

CITY           SKY/WX    TMP DP  RH WIND       PRES   REMARKS
DES MOINES     CLOUDY    54  32  43 E7        30.05S
QUAD CITIES    CLEAR     41  32  70 E10       30.09R

......ILLINOIS........

CITY           SKY/WX    TMP DP  RH WIND       PRES   REMARKS
QUINCY         PTCLDY    45  31  58 NE6       30.05R
CHICAGO        CLEAR     38  27  64 NE9       30.11R WCI  31




USA.gov is the U.S. government's official web portal to all federal, state and local government web resources and services.